sat.trackr.live / text

‹ back to catalog

STARLINK-31250

NORAD 58839 · 2024-017P

PAYLOAD ACTIVE UNKNOWN

§ Identity

Operator
Country
US
Launch date
2024-01-24
Launch site
AFWTR
Launch vehicle
Mass (kg)
RCS (m²)

Purposes: comms

External: N2YO · Heavens-Above · Gunter

§ Orbital elements

Epoch: 2026-09-20T14:05:21.760224Z

Period
93.85 min
Inclination
53.1627°
Eccentricity
0.0001283
Mean motion
15.34389903 rev/d
Perigee alt
461.9 km
Apogee alt
463.6 km
Semi-major
6,840.9 km
B*
5.7961e-5
RAAN
5.0034°
Arg perigee
98.3323°
Mean anomaly
261.7826°
Rev number
15,004

§ Raw data

STARLINK-312501 58839U 24017P   26263.58705741  .00001582  00000+0  57961-4 0  99902 58839  53.1627   5.0034 0001283  98.3323 261.7826 15.34389903150040

JSON: /api/v1/satellites/58839 · /tle

For live sub-satellite position, see the globe view (requires WebGL).

§ Visibility from observer

Set your observer location to see the next 7 days of passes ≥ 10°. The values pass through the URL so the page stays shareable.

No JS? Fill the form by hand. The geolocation button needs JavaScript.